Theta_e
285 285 284 284 284 284 284 284 284 285 285 286 287 288 288 288 288 288 288 288 288 289 290 290 290 291 290 290 291 291 290 290 288 288 291 293 292 293 295 298 300 302 308
284 284 283 283 283 282 282 282 283 283 284 284 285 286 286 286 286 285 284 285 285 286 287 288 287 288 287 288 288 287 288 289 286 284 287 287 289 291 292 293 296 297 299
282 282 281 281 281 280 281 281 282 282 282 283 284 284 285 284 284 284 283 283 284 285 286 284 284 283 283 283 284 284 284 285 285 284 283 286 287 288 288 290 290 292 295
281 280 279 279 280 279 280 280 281 281 281 282 282 283 284 283 283 282 282 282 283 283 284 283 282 282 281 282 282 281 282 281 281 281 281 281 282 284 286 284 283 286 287
279 279 279 279 279 279 279 279 280 280 280 281 281 281 282 283 283 281 281 281 280 280 281 281 281 281 282 282 281 281 280 280 279 279 278 279 279 280 280 281 280 281 283
278 277 278 278 278 278 278 279 279 279 279 279 279 279 279 282 283 283 281 280 280 280 279 279 280 280 280 281 282 282 281 279 279 278 278 277 279 280 279 278 279 279 278
277 277 277 278 277 278 278 278 278 277 278 278 278 278 278 280 282 282 280 279 278 278 278 278 278 278 278 279 280 280 280 281 281 278 277 276 276 277 278 277 278 278 279
277 276 276 277 276 277 277 276 276 276 276 277 277 278 278 279 281 281 279 277 277 276 276 277 276 276 276 278 277 276 277 278 278 278 277 277 277 278 278 278 277 277 279
275 275 276 276 276 276 275 275 275 276 276 276 277 277 277 277 279 279 278 276 275 275 275 276 275 274 277 278 275 274 274 275 278 279 278 277 278 278 278 275 272 271 270
274 275 275 275 275 275 275 275 275 275 276 276 276 276 277 274 277 278 277 275 274 273 274 274 275 275 277 277 274 273 271 272 273 272 272 272 273 273 275 273 272 269 269
274 273 273 273 273 274 273 274 274 274 274 275 275 275 275 274 274 276 276 274 274 273 272 272 273 275 275 275 275 271 271 272 269 269 268 268 269 270 270 271 271 270 269
271 271 271 271 273 273 272 273 273 273 272 272 273 273 273 273 273 274 274 275 275 272 271 271 273 274 273 272 271 272 272 269 266 264 264 264 265 265 266 267 269 270 271
269 268 269 270 271 272 271 271 271 271 270 270 270 269 269 270 270 272 272 273 274 273 272 273 272 271 270 268 268 269 266 264 262 261 261 262 263 264 265 265 266 267 268
267 268 269 270 269 270 271 271 270 269 268 268 267 266 267 267 268 269 271 270 272 272 271 266 267 266 266 265 263 264 263 262 261 260 260 261 262 261 261 262 261 262 262
268 268 269 269 269 268 269 268 269 269 269 267 266 266 263 262 266 271 272 270 270 272 261 259 259 260 260 260 260 260 260 259 258 259 258 258 258 259 259 260 260 259 258
267 267 267 267 267 267 266 266 268 269 270 270 271 270 267 270 271 272 271 272 273 270 252 251 256 257 257 257 256 256 257 257 257 257 256 256 256 256 256 257 258 258 257
265 265 265 266 265 264 264 263 262 264 267 268 268 268 269 269 270 270 270 271 267 263 248 248 252 255 255 255 255 255 254 256 256 255 255 255 255 255 254 255 256 257 256
263 263 263 264 263 262 262 262 261 260 258 258 263 264 266 267 267 268 269 262 252 252 247 247 248 250 252 253 253 253 253 253 253 253 253 253 252 252 252 253 254 254 255
261 262 262 261 261 261 260 259 258 257 256 254 254 258 260 263 265 266 266 250 247 246 247 248 249 249 251 251 252 251 251 251 252 251 251 251 251 251 251 252 253 253 254
259 260 258 256 255 255 257 256 255 254 252 252 251 251 248 249 248 248 247 245 244 248 248 248 249 248 247 248 249 249 250 250 249 250 250 250 251 251 251 251 252 252 253
256 255 255 253 252 252 252 251 250 246 248 248 250 252 262 258 252 246 248 248 248 248 249 248 249 248 248 247 246 247 248 249 249 249 249 249 250 249 250 251 251 252 253
252 251 248 248 247 247 246 247 246 246 246 247 250 250 261 250 249 249 249 249 251 250 251 250 250 249 250 250 249 249 249 249 249 249 248 249 249 249 250 250 251 252 254
247 247 245 245 245 247 245 244 245 246 247 247 248 250 249 248 249 250 250 251 249 250 251 247 249 250 251 250 250 249 249 249 249 249 248 248 248 249 249 250 250 253 255
247 247 248 247 244 244 246 247 246 247 247 248 247 248 250 250 250 251 251 251 251 251 251 251 250 250 250 250 250 250 250 250 250 249 247 248 249 249 249 251 253 256 257
245 245 245 247 246 247 247 247 247 246 247 249 250 250 251 250 251 251 252 252 251 251 251 251 251 250 249 248 249 249 250 252 250 250 250 249 248 249 250 253 256 256 258
244 244 245 244 246 246 246 247 248 249 249 250 250 251 251 251 252 252 252 252 251 251 251 251 251 249 249 249 249 250 251 253 253 253 253 252 253 255 256 256 255 257 257
Wind_Speed
4 5 5 5 5 5 5 5 5 5 6 6 6 6 8 9 9 8 7 8 8 7 6 7 8 8 6 6 5 5 5 4 7 8 8 10 13 13 13 13 13 14 14
4 5 5 5 5 5 5 5 5 5 5 5 6 6 8 9 9 9 8 8 8 8 7 8 9 8 8 9 6 7 5 6 7 14 11 9 11 12 13 15 12 11 14
5 5 5 5 5 5 5 5 5 5 5 5 5 6 7 8 9 8 8 7 7 7 8 8 8 8 8 7 5 6 5 7 7 9 10 9 9 10 13 11 13 13 12
5 5 5 4 5 4 5 5 5 5 5 5 5 5 7 8 8 8 7 6 6 7 8 8 8 9 9 8 8 8 8 7 7 7 8 9 9 11 9 14 15 11 14
6 5 5 4 4 4 4 5 5 5 5 5 5 6 5 7 7 8 7 6 6 6 7 7 8 8 15 13 8 9 10 8 7 8 8 8 9 11 13 11 13 15 15
6 6 5 4 4 4 4 4 5 5 5 5 5 5 5 6 12 14 9 6 6 6 7 7 7 7 10 15 17 18 13 9 9 9 8 11 11 12 11 13 14 15 15
9 7 6 5 5 4 4 5 5 5 5 5 5 5 4 4 11 13 12 5 6 7 8 8 9 7 9 10 15 18 14 16 14 10 10 11 14 13 15 15 14 15 16
9 8 6 6 5 5 5 5 4 3 4 4 4 4 3 4 10 10 11 6 5 7 8 8 9 10 11 14 13 12 11 11 11 9 11 12 13 14 14 14 17 18 15
10 8 7 6 6 5 6 5 4 3 3 3 3 3 3 4 10 10 9 6 6 8 8 8 8 10 16 22 14 13 11 11 12 20 20 22 22 23 19 12 11 13 16
10 9 7 6 6 6 5 5 4 2 4 2 3 4 6 5 9 9 10 5 6 5 6 8 11 14 20 21 12 11 11 11 14 12 12 14 15 13 19 11 10 13 13
10 8 6 5 5 6 5 3 4 4 3 2 4 3 6 6 7 9 10 6 5 6 7 7 7 17 21 20 18 10 13 15 14 11 10 9 10 10 10 11 12 12 14
7 9 7 5 4 5 5 5 4 4 3 3 3 3 4 5 7 8 9 12 12 6 8 7 7 19 19 18 12 19 21 15 9 9 9 9 9 10 10 12 14 13 13
5 1 5 6 5 3 5 5 4 3 3 2 2 2 3 4 3 9 9 12 13 8 7 11 16 18 16 11 16 17 14 8 8 8 9 9 9 11 14 13 13 15 16
6 4 2 5 6 4 3 4 4 3 3 2 1 1 1 3 3 4 5 3 9 8 8 6 11 12 11 11 8 10 8 8 8 8 9 10 10 9 9 11 13 13 14
7 5 3 2 5 5 4 3 3 3 3 2 2 2 2 2 4 9 8 6 6 8 5 4 5 5 6 6 5 5 6 7 7 7 9 10 10 10 10 11 12 13 13
7 5 3 2 2 3 2 2 3 1 2 3 4 2 2 7 10 11 12 15 14 14 5 2 3 5 6 6 6 6 6 7 7 8 8 9 10 11 11 11 11 11 13
6 6 3 2 2 2 1 1 0 3 4 3 4 6 8 9 10 11 12 11 11 10 2 2 3 4 5 6 6 6 7 7 8 7 8 9 10 10 13 11 11 12 13
4 5 4 3 2 1 1 1 1 2 2 2 4 8 8 9 11 11 13 8 5 4 1 3 4 4 5 5 6 6 7 7 7 7 8 9 9 9 11 11 11 13 13
5 4 3 2 1 2 1 1 2 2 2 3 2 4 4 12 12 11 9 3 3 3 3 4 4 4 5 4 5 5 6 7 8 8 7 8 8 9 10 11 12 16 17
3 4 3 2 1 1 1 2 2 2 2 3 3 5 3 2 2 3 2 2 3 4 4 5 5 5 5 5 5 5 6 7 7 7 8 8 8 8 10 12 11 13 13
3 2 5 2 2 3 3 3 3 3 4 4 5 4 13 5 2 3 4 4 4 5 5 5 5 5 5 5 4 5 6 8 8 8 8 8 8 9 9 10 12 12 14
3 3 2 4 3 3 3 4 4 3 4 4 6 5 15 2 3 5 5 6 6 6 6 5 6 6 6 6 6 6 7 9 8 8 8 8 9 9 9 10 11 12 13
3 3 3 3 3 4 3 3 4 4 5 5 5 6 4 4 6 6 7 7 6 7 6 5 7 7 6 7 6 7 8 9 9 8 9 9 10 10 10 10 12 12 13
4 4 4 4 3 3 4 5 5 6 6 6 5 5 6 7 8 8 8 7 6 7 7 7 7 9 8 8 7 8 8 9 8 9 9 10 11 12 11 11 12 15 14
4 4 4 4 4 5 5 5 6 5 6 6 7 7 7 7 8 8 8 8 8 7 9 8 7 9 11 12 13 14 15 19 15 13 9 12 14 16 14 13 14 13 15
4 5 5 3 4 5 5 6 6 6 7 7 7 8 8 8 9 9 9 8 8 8 9 8 9 11 12 12 15 16 17 19 17 18 13 12 12 12 11 13 17 12 14
Wind_Direction
125 112 103 89 80 78 73 60 45 40 32 31 26 30 32 50 37 34 26 23 24 19 12 19 22 19 23 13 359 16 1 329 313 314 328 329 328 325 323 324 324 324 319
142 119 104 93 86 82 75 64 53 49 36 35 29 34 49 50 41 36 26 16 14 12 10 21 23 17 18 18 359 1 330 349 321 308 320 324 322 321 317 320 323 320 319
144 126 111 105 98 94 86 74 61 57 45 36 37 38 64 58 45 33 24 10 356 12 26 23 20 14 25 4 6 10 354 338 322 311 314 321 321 320 323 318 316 319 318
143 125 119 116 107 104 97 86 77 69 58 46 46 43 79 64 51 35 20 8 19 27 27 19 14 30 12 1 12 0 350 334 325 319 316 320 329 334 328 328 324 323 315
138 130 132 123 113 106 95 89 84 69 61 63 54 44 61 61 44 35 18 24 24 20 24 15 5 33 6 10 358 353 345 333 327 328 324 326 332 337 338 331 314 318 317
138 138 136 135 127 117 109 101 91 78 71 70 58 60 47 67 47 37 36 23 20 23 10 7 356 14 358 355 352 348 342 333 329 327 327 327 326 327 324 320 317 319 315
146 149 150 148 140 126 117 101 88 82 82 76 69 71 58 60 39 39 33 27 17 13 5 359 356 0 354 344 346 344 336 335 337 329 328 327 320 322 317 314 311 304 295
147 147 148 147 144 135 117 103 87 82 88 86 73 74 76 67 41 31 42 28 27 10 357 355 354 354 344 345 346 336 334 330 331 331 327 326 317 318 317 311 309 300 295
150 149 151 154 148 138 127 119 110 98 88 85 87 81 67 64 36 18 43 21 14 0 354 345 359 349 339 345 342 333 331 324 326 324 328 321 319 320 317 322 319 320 312
150 147 146 148 144 131 126 124 108 120 113 119 108 74 84 70 28 13 33 6 354 356 345 340 348 342 344 343 339 339 325 331 329 333 328 326 323 315 326 323 318 314 314
131 127 129 131 141 132 120 120 107 104 80 72 97 77 101 74 23 7 19 1 343 353 339 340 337 333 342 338 345 338 332 335 332 331 326 323 320 325 326 321 317 307 299
130 135 137 138 151 133 135 127 110 105 112 105 98 87 57 40 15 353 7 352 338 342 340 321 326 341 337 339 349 340 340 344 337 331 327 323 325 323 321 311 303 294 287
103 93 138 139 131 146 136 122 113 110 104 100 75 70 24 5 355 343 334 342 332 330 324 330 343 339 341 348 347 346 349 341 334 324 318 317 319 315 315 309 306 301 295
125 147 196 144 132 124 111 113 126 118 118 103 70 36 315 324 324 304 286 317 308 320 356 5 349 345 348 348 351 347 339 334 325 315 316 314 314 316 318 316 315 318 310
130 143 182 178 130 132 118 122 121 120 162 185 202 195 181 268 280 299 323 318 296 325 62 29 350 344 343 341 333 325 320 320 318 321 317 314 317 319 319 323 313 311 309
139 156 168 179 135 124 131 120 28 345 265 282 301 268 204 299 308 311 322 313 338 348 50 4 325 330 320 317 316 314 314 318 318 317 310 310 315 318 318 316 311 312 309
131 145 152 182 165 146 119 112 325 338 337 335 335 334 323 304 314 314 314 322 6 7 71 304 290 296 298 302 301 301 303 304 307 304 306 307 310 311 315 311 310 309 306
143 130 149 163 157 143 170 200 242 241 267 284 329 324 316 320 306 305 301 33 355 349 199 245 257 259 271 283 287 292 292 297 300 302 300 300 301 304 307 305 306 307 305
174 166 150 146 172 193 198 235 227 255 261 273 326 325 314 309 306 306 324 129 238 262 259 260 246 254 266 265 276 280 282 287 289 293 289 287 291 298 297 299 300 303 302
180 147 146 140 152 170 231 218 227 237 261 265 271 267 279 351 318 267 243 219 239 246 238 244 257 253 251 254 263 264 278 282 281 281 283 284 287 288 293 297 297 301 300
157 155 161 132 183 216 220 222 228 220 236 244 254 247 278 264 242 248 279 267 253 254 256 243 256 251 247 241 245 259 264 274 273 274 277 281 285 288 290 289 291 292 293
141 154 154 193 204 219 229 226 229 230 241 256 274 271 291 312 266 262 257 254 255 244 244 239 255 252 254 256 259 259 265 270 272 273 275 278 282 284 285 284 288 290 294
159 175 196 217 211 228 254 247 244 242 249 242 247 267 268 249 254 257 254 254 242 248 246 225 243 258 252 246 241 239 254 262 264 265 271 278 282 281 280 282 285 289 293
185 196 209 221 219 231 238 249 245 244 246 255 253 250 255 257 256 256 255 256 249 250 247 243 240 243 254 253 255 251 250 255 255 257 251 261 273 280 276 275 280 284 292
184 203 211 220 224 232 243 249 250 248 251 253 261 255 255 248 254 257 258 254 251 250 254 251 251 249 249 250 252 257 261 269 266 263 261 256 255 262 265 269 282 287 290
201 210 222 209 234 232 231 243 248 250 251 253 248 249 251 254 256 257 258 255 254 254 253 255 255 249 252 259 261 261 263 267 266 261 246 243 252 263 273 281 282 285 290